West Memphis, AR

12:30 AM CDT on May 28, 2017 (GMT -0500)
West Memphis Municipal

Weather History for KAWM - August, 2014

Change the Weather History Date:

Saturday, August 2, 2014

  Actual Average Record
Temperature  
Mean Temperature 78 °F -  
Max Temperature 90 °F 89 °F 99 °F (2008)
Min Temperature 68 °F 69 °F 39 °F (2010)
Cooling Degree Days 14    
Growing Degree Days 28 (Base 50)    
Moisture  
Dew Point 68 °F    
Average Humidity 72    
Maximum Humidity 100    
Minimum Humidity 46    
Precipitation  
Precipitation 0.00 in - - ()
Sea Level Pressure  
Sea Level Pressure 30.03 in    
Wind  
Wind Speed 4 mph (NNE)    
Max Wind Speed 13 mph    
Max Gust Speed 17 mph    
Visibility 9 miles    
Events      
Averages and records for this station are not official NWS values.
T = Trace of Precipitation, MM = Missing Value Source: NWS Daily Summary

Daily Weather History Graph

Daily Weather History Graph

Search for Another Location

Airport or City:

Trip Planner

Search our weather history database for the weather conditions in past years. The results will help you decide how hot, cold, wet, or windy it might be!

Date:

Astronomy

Aug. 02, 2014 Rise Set
Actual Time 6:10 AM CDT 8:03 PM CDT
Civil Twilight 5:43 AM CDT 8:30 PM CDT
Nautical Twilight 5:09 AM CDT 9:04 PM CDT
Astronomical Twilight 4:33 AM CDT 9:40 PM CDT
Moon 12:16 PM CDT (8/2) 11:38 PM CDT (8/2)
Length of Visible Light 14h 47m
Length of Day
13h 52m
Waxing Crescent, 37% of the Moon is Illuminated
Aug 2
Waxing Crescent
Aug 3
First Quarter
Aug 10
Full
Aug 17
Last Quarter
Aug 25
New

Hourly Weather History & Observations

Time (CDT) Temp. Heat Index Dew Point Humidity Pressure Visibility Wind Dir Wind Speed Gust Speed Precip Events Conditions
12:53 AM 71.1 °F - 69.1 °F 93% 30.01 in 9.0 mi Calm Calm - N/A   Clear
1:53 AM 70.0 °F - 69.1 °F 97% 30.01 in 9.0 mi Calm Calm - N/A   Clear
2:53 AM 69.1 °F - 68.0 °F 96% 30.01 in 9.0 mi NNE 3.5 mph - N/A   Clear
3:53 AM 69.1 °F - 68.0 °F 96% 30.01 in 9.0 mi Calm Calm - N/A   Overcast
4:53 AM 68.0 °F - 68.0 °F 100% 30.02 in 7.0 mi Calm Calm - N/A   Clear
5:53 AM 68.0 °F - 68.0 °F 100% 30.03 in 7.0 mi Calm Calm - N/A   Clear
6:53 AM 68.0 °F - 68.0 °F 100% 30.04 in 6.0 mi Calm Calm - N/A   Clear
7:53 AM 73.9 °F - 69.1 °F 85% 30.06 in 8.0 mi NNE 3.5 mph - N/A   Unknown
8:53 AM 78.1 °F - 68.0 °F 71% 30.06 in 10.0 mi NNE 6.9 mph - N/A   Clear
9:53 AM 82.0 °F 85.5 °F 69.1 °F 65% 30.07 in 10.0 mi NNE 9.2 mph - N/A   Clear
10:53 AM 84.9 °F 87.6 °F 66.9 °F 55% 30.06 in 10.0 mi NE 10.4 mph - N/A   Clear
11:53 AM 87.1 °F 89.2 °F 66.0 °F 49% 30.05 in 10.0 mi NE 9.2 mph - N/A   Clear
12:53 PM 86.0 °F 88.8 °F 66.9 °F 53% 30.05 in 10.0 mi North 9.2 mph - N/A   Scattered Clouds
1:53 PM 88.0 °F 90.7 °F 66.9 °F 49% 30.04 in 10.0 mi ENE 12.7 mph 16.1 mph N/A   Scattered Clouds
2:53 PM 89.1 °F 91.3 °F 66.0 °F 46% 30.02 in 10.0 mi North 6.9 mph 17.3 mph N/A   Scattered Clouds
3:53 PM 89.1 °F 92.1 °F 66.9 °F 48% 30.01 in 10.0 mi North 10.4 mph 17.3 mph N/A   Unknown
4:53 PM 88.0 °F 90.3 °F 66.0 °F 48% 30.00 in 10.0 mi NNE 11.5 mph - N/A   Clear
5:53 PM 87.1 °F 89.2 °F 66.0 °F 49% 30.00 in 10.0 mi NNE 10.4 mph - N/A   Clear
6:53 PM 86.0 °F 87.6 °F 64.9 °F 49% 30.00 in 10.0 mi NNE 9.2 mph - N/A   Clear
7:53 PM 82.0 °F 84.5 °F 66.9 °F 60% 30.01 in 10.0 mi NNE 6.9 mph - N/A   Clear
8:53 PM 78.1 °F - 68.0 °F 71% 30.01 in 10.0 mi NNE 5.8 mph - N/A   Clear
9:53 PM 77.0 °F - 68.0 °F 74% 30.02 in 9.0 mi NE 6.9 mph - N/A   Clear
10:53 PM 75.9 °F - 69.1 °F 79% 30.03 in 9.0 mi NNE 5.8 mph - N/A   Clear
11:53 PM 73.0 °F - 68.0 °F 84% 30.04 in 8.0 mi NNE 3.5 mph - N/A   Clear